Location: ????
(30.1475°N, 31.1342°E)
Time: 06:55:30
(UTC+00:00)

Meteor 1-14 Rocket - Pass Details

Date: 30 March 2023
Orbit: 834 x 918 km, 81.3° (Epoch: 03 June)

Event Time Altitude Azimuth Distance (km) Brightness Sun altitude
Rises 00:21:06 0° 19° (NNE) 3,389 8.0 -42.3°
Reaches altitude 10° 00:25:27 10° 52° (NE) 2,461 7.3 -41.6°
Maximum altitude 00:27:18 12° 71° (ENE) 2,354 7.1 -41.3°
Drops below altitude 10° 00:29:08 10° 91° (E) 2,470 7.1 -41.0°
Sets 00:33:30 0° 123° (ESE) 3,420 7.6 -40.2°
